GW0058 Weather Reports


Display with metric or nautical units.
time (UTC)temp
F
wind
direction
speed
MPH
gust
MPH
rain 1hr
in
rain 24hr
in
rain mn
in
humidity
%
barometer
mb
20240624133047 76 202 2.0 5.0 0.00 0.00 0.00 95 1016.3
20240624132548 76 200 2.0 5.0 0.00 0.00 0.00 95 1016.2
20240624132051 76 186 1.0 3.0 0.00 0.00 0.00 95 1016.0
20240624131552 76 230 1.0 4.0 0.00 0.00 0.00 96 1016.0
20240624131046 76 229 1.0 4.0 0.00 0.00 0.00 96 1015.9
20240624130549 76 227 1.0 3.0 0.00 0.00 0.00 96 1015.9
20240624130051 76 191 1.0 3.0 0.00 0.00 0.00 96 1015.9
20240624125552 75 210 1.0 5.0 0.00 0.00 0.00 96 1015.8
20240624125049 75 136 1.0 5.0 0.00 0.00 0.00 96 1015.7
20240624124556 75 170 0.0 2.0 0.00 0.00 0.00 96 1015.7
20240624124050 74 140 0.0 2.0 0.00 0.00 0.00 96 1015.7
20240624123548 74 0 0.0 0.0 0.00 0.00 0.00 96 1015.7
20240624123057 74 0 0.0 0.0 0.00 0.00 0.00 96 1015.6
20240624122548 73 0 0.0 0.0 0.00 0.00 0.00 96 1015.6
20240624122049 73 0 0.0 0.0 0.00 0.00 0.00 96 1015.6
20240624121555 72 0 0.0 0.0 0.00 0.00 0.00 96 1015.5
20240624121048 72 0 0.0 0.0 0.00 0.00 0.00 96 1015.5
20240624120550 72 0 0.0 0.0 0.00 0.00 0.00 96 1015.5
20240624120056 72 0 0.0 0.0 0.00 0.00 0.00 95 1015.5
20240624115549 72 0 0.0 0.0 0.00 0.00 0.00 96 1015.4
20240624115049 72 0 0.0 0.0 0.00 0.00 0.00 95 1015.3
20240624114552 72 0 0.0 0.0 0.00 0.00 0.00 95 1015.3
20240624114048 72 0 0.0 0.0 0.00 0.00 0.00 95 1015.2
20240624113552 72 0 0.0 0.0 0.00 0.00 0.00 95 1015.0
20240624113051 72 0 0.0 0.0 0.00 0.00 0.00 96 1015.0
20240624112550 72 0 0.0 0.0 0.00 0.00 0.00 95 1015.0
20240624112046 72 0 0.0 0.0 0.00 0.00 0.00 95 1014.9
20240624111551 72 0 0.0 0.0 0.00 0.00 0.00 95 1015.0
20240624111049 72 0 0.0 0.0 0.00 0.00 0.00 95 1015.0
20240624110551 72 0 0.0 0.0 0.00 0.00 0.00 95 1015.0
20240624110105 72 0 0.0 0.0 0.00 0.00 0.00 95 1014.9
20240624105550 72 0 0.0 0.0 0.00 0.00 0.00 95 1014.7
20240624105051 73 0 0.0 0.0 0.00 0.00 0.00 95 1014.7
20240624104552 73 0 0.0 0.0 0.00 0.00 0.00 95 1014.7
20240624104048 73 0 0.0 0.0 0.00 0.00 0.00 95 1014.6
20240624103549 73 0 0.0 0.0 0.00 0.00 0.00 95 1014.7
20240624103051 73 0 0.0 0.0 0.00 0.00 0.00 95 1014.7
20240624102549 73 0 0.0 0.0 0.00 0.00 0.00 95 1014.6
20240624102050 73 0 0.0 0.0 0.00 0.00 0.00 95 1014.6
20240624101550 73 0 0.0 0.0 0.00 0.00 0.00 95 1014.6
20240624101048 73 0 0.0 0.0 0.00 0.00 0.00 95 1014.6
20240624100551 73 0 0.0 0.0 0.00 0.00 0.00 95 1014.6
20240624100050 73 0 0.0 0.0 0.00 0.00 0.00 95 1014.6
20240624095550 73 0 0.0 0.0 0.00 0.00 0.00 95 1014.7
20240624095049 73 0 0.0 0.0 0.00 0.00 0.00 95 1014.7
20240624094553 73 0 0.0 0.0 0.00 0.00 0.00 95 1014.6
20240624094053 73 0 0.0 0.0 0.00 0.00 0.00 95 1014.7
20240624093550 73 0 0.0 0.0 0.00 0.00 0.00 95 1014.6
20240624093052 73 0 0.0 0.0 0.00 0.00 0.00 94 1014.5
20240624092547 73 0 0.0 0.0 0.00 0.00 0.00 94 1014.5
20240624092050 73 0 0.0 0.0 0.00 0.00 0.00 94 1014.5
20240624091551 73 0 0.0 0.0 0.00 0.00 0.00 94 1014.6
20240624091049 73 0 0.0 0.0 0.00 0.00 0.00 94 1014.7
20240624090549 73 0 0.0 0.0 0.00 0.00 0.00 94 1014.7
20240624090054 73 0 0.0 0.0 0.00 0.00 0.00 94 1014.6
20240624085550 73 0 0.0 0.0 0.00 0.00 0.00 94 1014.6
20240624085049 73 0 0.0 0.0 0.00 0.00 0.00 94 1014.7
20240624084554 73 0 0.0 0.0 0.00 0.00 0.00 94 1014.7
20240624084049 73 0 0.0 0.0 0.00 0.00 0.00 94 1014.7
20240624083550 73 0 0.0 0.0 0.00 0.00 0.00 94 1014.8
20240624083106 73 0 0.0 0.0 0.00 0.00 0.00 94 1014.7
20240624082546 74 0 0.0 0.0 0.00 0.00 0.00 94 1014.8
20240624082050 74 0 0.0 0.0 0.00 0.00 0.00 94 1014.9
20240624081610 74 0 0.0 0.0 0.00 0.00 0.00 94 1014.9
20240624081051 74 0 0.0 0.0 0.00 0.00 0.00 94 1015.0
20240624080550 74 0 0.0 0.0 0.00 0.00 0.00 94 1015.0
20240624080101 74 0 0.0 0.0 0.00 0.00 0.00 94 1015.0
20240624075549 74 0 0.0 0.0 0.00 0.00 0.00 93 1015.0
20240624075051 74 0 0.0 0.0 0.00 0.00 0.00 93 1015.0
20240624074553 74 0 0.0 0.0 0.00 0.00 0.00 93 1015.0
20240624074047 74 0 0.0 0.0 0.00 0.00 0.00 93 1015.0
20240624073549 74 0 0.0 0.0 0.00 0.00 0.00 93 1015.0
20240624073048 74 0 0.0 0.0 0.00 0.00 0.00 93 1015.1
20240624072551 75 0 0.0 0.0 0.00 0.00 0.00 93 1015.0
20240624072052 75 0 0.0 0.0 0.00 0.00 0.00 93 1015.2
20240624071553 75 0 0.0 0.0 0.00 0.00 0.00 93 1015.1
20240624071049 75 0 0.0 0.0 0.00 0.00 0.00 93 1015.1
20240624070550 75 0 0.0 0.0 0.00 0.00 0.00 92 1015.1
20240624070059 75 0 0.0 0.0 0.00 0.00 0.00 92 1015.1
20240624065549 75 0 0.0 0.0 0.00 0.00 0.00 92 1015.3
20240624065050 75 0 0.0 0.0 0.00 0.00 0.00 92 1015.3
20240624064550 75 0 0.0 0.0 0.00 0.00 0.00 92 1015.4
20240624064055 75 0 0.0 0.0 0.00 0.00 0.00 92 1015.4
20240624063550 75 0 0.0 0.0 0.00 0.00 0.00 92 1015.4
20240624063047 75 0 0.0 0.0 0.00 0.00 0.00 92 1015.4
20240624062550 76 0 0.0 0.0 0.00 0.00 0.00 91 1015.4
20240624062049 76 0 0.0 0.0 0.00 0.00 0.00 91 1015.3
20240624061556 76 0 0.0 0.0 0.00 0.00 0.00 91 1015.4
20240624061054 76 0 0.0 0.0 0.00 0.00 0.00 91 1015.3
20240624060552 76 0 0.0 0.0 0.00 0.00 0.00 91 1015.4
20240624060051 76 0 0.0 0.0 0.00 0.00 0.00 91 1015.4
20240624055550 75 0 0.0 0.0 0.00 0.00 0.00 90 1015.4
20240624055048 76 0 0.0 0.0 0.00 0.00 0.00 90 1015.4
20240624054549 76 0 0.0 0.0 0.00 0.00 0.00 90 1015.6
20240624054050 76 0 0.0 0.0 0.00 0.00 0.00 90 1015.5
20240624053549 76 0 0.0 0.0 0.00 0.00 0.00 89 1015.5
20240624053047 76 0 0.0 0.0 0.00 0.00 0.00 89 1015.5
20240624052550 76 0 0.0 0.0 0.00 0.00 0.00 89 1015.5
20240624052049 76 0 0.0 0.0 0.00 0.00 0.00 89 1015.6
20240624051611 76 0 0.0 0.0 0.00 0.00 0.00 88 1015.6
20240624051050 77 0 0.0 0.0 0.00 0.00 0.00 88 1015.6
20240624050554 77 0 0.0 0.0 0.00 0.00 0.00 87 1015.6
20240624050056 77 0 0.0 0.0 0.00 0.00 0.00 87 1015.6
20240624045549 77 0 0.0 0.0 0.00 0.00 0.00 87 1015.5
20240624045049 77 0 0.0 0.0 0.00 0.00 0.00 87 1015.5
20240624044547 77 0 0.0 0.0 0.00 0.00 0.00 87 1015.5
20240624044053 78 0 0.0 0.0 0.00 0.00 0.00 86 1015.5
20240624043548 78 0 0.0 2.0 0.00 0.00 0.00 86 1015.5
20240624043059 78 0 0.0 2.0 0.00 0.00 0.00 85 1015.5
20240624042549 78 48 0.0 1.0 0.00 0.00 0.00 85 1015.4
20240624042050 79 0 0.0 1.0 0.00 0.00 0.00 85 1015.4
20240624041556 79 136 0.0 1.0 0.00 0.00 0.00 85 1015.4
20240624041047 79 0 0.0 1.0 0.00 0.00 0.00 84 1015.3
20240624040550 79 0 0.0 1.0 0.00 0.00 0.00 84 1015.2
20240624040101 79 0 0.0 1.0 0.00 0.00 0.00 84 1015.1
20240624035548 79 0 0.0 2.0 0.00 0.00 0.00 83 1015.1
20240624035050 79 0 0.0 2.0 0.00 0.00 0.00 83 1015.0
20240624034550 79 153 0.0 2.0 0.00 0.00 0.00 83 1015.0
20240624034048 80 0 0.0 2.0 0.00 0.00 0.00 83 1015.0
20240624033552 80 138 1.0 2.0 0.00 0.00 0.00 82 1014.8
20240624033051 80 0 0.0 3.0 0.00 0.00 0.00 81 1014.8
20240624032549 80 157 1.0 3.0 0.00 0.00 0.00 81 1014.8
20240624032048 80 140 1.0 3.0 0.00 0.00 0.00 80 1014.7
20240624031551 80 0 0.0 3.0 0.00 0.00 0.00 79 1014.7
20240624031051 80 107 1.0 3.0 0.00 0.00 0.00 79 1014.7
20240624030549 80 146 1.0 4.0 0.00 0.00 0.00 78 1014.6
20240624030052 80 143 0.0 4.0 0.00 0.00 0.00 77 1014.5
20240624025549 80 111 0.0 4.0 0.00 0.00 0.00 77 1014.4
20240624025050 80 116 0.0 4.0 0.00 0.00 0.00 77 1014.4
20240624024605 80 150 1.0 4.0 0.00 0.00 0.00 77 1014.3
20240624024049 80 165 0.0 1.0 0.00 0.00 0.00 76 1014.4
20240624023549 80 0 0.0 0.0 0.00 0.00 0.00 76 1014.2
20240624023059 80 0 0.0 0.0 0.00 0.00 0.00 77 1014.1
20240624022550 80 0 0.0 0.0 0.00 0.00 0.00 77 1014.1
20240624022049 80 0 0.0 0.0 0.00 0.00 0.00 76 1014.0
20240624021550 80 0 0.0 0.0 0.00 0.00 0.00 77 1013.9
20240624021051 80 0 0.0 0.0 0.00 0.00 0.00 76 1013.9
20240624020551 80 0 0.0 0.0 0.00 0.00 0.00 75 1013.9
20240624020103 81 0 0.0 0.0 0.00 0.00 0.00 75 1013.8
20240624015550 82 0 0.0 0.0 0.00 0.00 0.00 71 1013.8
20240624015050 82 0 0.0 1.0 0.00 0.00 0.00 69 1013.8
20240624014548 83 0 0.0 1.0 0.00 0.00 0.00 69 1013.7
20240624014052 83 0 0.0 1.0 0.00 0.00 0.00 68 1013.7
20240624013548 83 0 0.0 1.0 0.00 0.00 0.00 68 1013.8
20240624013050 84 0 0.0 1.0 0.00 0.00 0.00 67 1013.8
20240624012549 84 0 0.0 1.0 0.00 0.00 0.00 66 1013.7
20240624012048 84 0 0.0 2.0 0.00 0.00 0.00 67 1013.7
20240624011603 85 0 0.0 2.0 0.00 0.00 0.00 65 1013.7
20240624011049 85 0 0.0 2.0 0.00 0.00 0.00 64 1013.7
20240624010552 86 0 0.0 2.0 0.00 0.00 0.00 64 1013.7
20240624010049 86 0 0.0 6.0 0.00 0.00 0.00 62 1013.7
20240624005546 86 0 1.0 5.0 0.00 0.00 0.00 62 1013.7
20240624005046 86 173 1.0 5.0 0.00 0.00 0.00 62 1013.8
20240624004602 86 0 1.0 5.0 0.00 0.00 0.00 60 1013.7
20240624004051 87 123 1.0 4.0 0.00 0.00 0.00 61 1013.7
20240624003551 87 155 1.0 7.0 0.00 0.00 0.00 59 1013.6
20240624003103 87 136 2.0 7.0 0.00 0.00 0.00 59 1013.7
20240624002549 88 149 2.0 5.0 0.00 0.00 0.00 58 1013.6
20240624002050 88 157 1.0 8.0 0.00 0.00 0.00 59 1013.7
20240624001637 88 159 1.0 8.0 0.00 0.00 0.00 58 1013.6
20240624001236 88 169 2.0 7.0 0.00 0.00 0.00 56 1013.5
20240624000653 89 174 2.0 7.0 0.00 0.00 0.00 56 1013.5
20240624000122 89 171 2.0 8.0 0.00 0.00 0.00 56 1013.6
20240623235550 89 171 2.0 8.0 0.00 0.00 0.00 57 1013.5
20240623235049 89 188 4.0 8.0 0.00 0.00 0.00 55 1013.5
20240623234547 90 153 2.0 7.0 0.00 0.00 0.00 55 1013.5
20240623234050 89 162 3.0 5.0 0.00 0.00 0.00 56 1013.6
20240623233555 88 159 1.0 8.0 0.00 0.00 0.00 58 1013.5
20240623233100 89 180 1.0 8.0 0.00 0.00 0.00 55 1013.6
20240623232550 91 109 1.0 5.0 0.00 0.00 0.00 52 1013.6
20240623232050 91 59 2.0 6.0 0.00 0.00 0.00 54 1013.6
20240623231559 90 150 2.0 6.0 0.00 0.00 0.00 50 1013.6
20240623231050 91 184 1.0 6.0 0.00 0.00 0.00 50 1013.6
20240623230549 90 114 2.0 7.0 0.00 0.00 0.00 52 1013.7
20240623230054 90 196 3.0 10.0 0.00 0.00 0.00 54 1013.7
20240623225550 90 138 4.0 10.0 0.00 0.00 0.00 51 1013.7
20240623225053 91 153 1.0 6.0 0.00 0.00 0.00 50 1013.7
20240623224551 91 145 2.0 10.0 0.00 0.00 0.00 49 1013.8
20240623224053 91 173 2.0 10.0 0.00 0.00 0.00 51 1013.7
20240623223550 91 150 4.0 10.0 0.00 0.00 0.00 50 1013.7
20240623223048 91 107 2.0 7.0 0.00 0.00 0.00 55 1013.8
20240623222549 90 138 3.0 10.0 0.00 0.00 0.00 54 1013.7
20240623222049 90 186 3.0 9.0 0.00 0.00 0.00 52 1013.8
20240623221552 90 140 3.0 8.0 0.00 0.00 0.00 51 1013.8
20240623221049 91 171 1.0 7.0 0.00 0.00 0.00 48 1014.0
20240623220552 91 188 1.0 10.0 0.00 0.00 0.00 50 1014.1
20240623220053 90 103 2.0 10.0 0.00 0.00 0.00 54 1014.1
20240623215554 91 135 6.0 9.0 0.00 0.00 0.00 51 1014.1
20240623215050 91 140 3.0 6.0 0.00 0.00 0.00 52 1014.0
20240623214549 91 0 2.0 9.0 0.00 0.00 0.00 49 1014.1
20240623214050 91 124 3.0 9.0 0.00 0.00 0.00 51 1014.3
20240623213550 91 61 2.0 8.0 0.00 0.00 0.00 50 1014.4
20240623213053 91 148 3.0 6.0 0.00 0.00 0.00 50 1014.4
20240623212549 91 107 2.0 6.0 0.00 0.00 0.00 49 1014.4
20240623212052 91 167 2.0 6.0 0.00 0.00 0.00 51 1014.4
20240623211551 91 205 1.0 5.0 0.00 0.00 0.00 48 1014.5
20240623211050 91 123 2.0 5.0 0.00 0.00 0.00 47 1014.6
20240623210550 91 150 2.0 6.0 0.00 0.00 0.00 52 1014.7
20240623210049 91 173 2.0 11.0 0.00 0.00 0.00 51 1014.7
20240623205549 91 163 3.0 11.0 0.00 0.00 0.00 52 1014.9
20240623205050 91 162 4.0 9.0 0.00 0.00 0.00 49 1014.9
20240623204600 91 165 2.0 8.0 0.00 0.00 0.00 47 1015.0
20240623204049 91 155 4.0 8.0 0.00 0.00 0.00 45 1015.1
20240623203550 91 96 1.0 7.0 0.00 0.00 0.00 51 1015.1
20240623203056 91 202 1.0 4.0 0.00 0.00 0.00 54 1015.0
20240623202547 91 119 2.0 8.0 0.00 0.00 0.00 47 1015.2
20240623202050 91 183 2.0 8.0 0.00 0.00 0.00 48 1015.3
20240623201549 91 134 1.0 8.0 0.00 0.00 0.00 50 1015.3
20240623201050 90 214 2.0 8.0 0.00 0.00 0.00 49 1015.3
20240623200552 90 50 2.0 8.0 0.00 0.00 0.00 49 1015.3
20240623200054 91 157 3.0 8.0 0.00 0.00 0.00 44 1015.4
20240623195553 91 0 2.0 7.0 0.00 0.00 0.00 45 1015.4
20240623195049 91 143 1.0 5.0 0.00 0.00 0.00 47 1015.3
20240623194550 90 211 1.0 7.0 0.00 0.00 0.00 47 1015.4
20240623194050 90 206 3.0 8.0 0.00 0.00 0.00 46 1015.4
20240623193549 91 180 2.0 8.0 0.00 0.00 0.00 47 1015.5
20240623193053 91 146 1.0 7.0 0.00 0.00 0.00 47 1015.6
20240623192552 91 51 1.0 7.0 0.00 0.00 0.00 45 1015.6
20240623192049 90 161 0.0 8.0 0.00 0.00 0.00 46 1015.6
20240623191555 91 151 2.0 8.0 0.00 0.00 0.00 45 1015.6
20240623191048 90 16 1.0 6.0 0.00 0.00 0.00 43 1015.8
20240623190549 91 22 2.0 5.0 0.00 0.00 0.00 42 1015.9
20240623190048 91 44 2.0 8.0 0.00 0.00 0.00 43 1015.9
20240623185550 89 184 4.0 8.0 0.00 0.00 0.00 47 1016.0
20240623185054 90 208 2.0 5.0 0.00 0.00 0.00 47 1016.0
20240623184551 89 157 1.0 5.0 0.00 0.00 0.00 48 1016.1
20240623184050 89 193 1.0 9.0 0.00 0.00 0.00 45 1016.1
20240623183550 89 126 2.0 12.0 0.00 0.00 0.00 43 1016.1
20240623183050 89 142 3.0 12.0 0.00 0.00 0.00 46 1016.3
20240623182549 89 345 2.0 6.0 0.00 0.00 0.00 44 1016.3
20240623182050 89 70 2.0 5.0 0.00 0.00 0.00 42 1016.3
20240623181550 88 133 1.0 9.0 0.00 0.00 0.00 45 1016.4
20240623181050 88 144 4.0 9.0 0.00 0.00 0.00 52 1016.6
20240623180550 88 180 4.0 8.0 0.00 0.00 0.00 48 1016.5
20240623180052 89 62 3.0 10.0 0.00 0.00 0.00 47 1016.6
20240623175551 89 65 2.0 10.0 0.00 0.00 0.00 47 1016.5
20240623175050 88 235 1.0 5.0 0.00 0.00 0.00 47 1016.6
20240623174559 88 206 2.0 5.0 0.00 0.00 0.00 43 1016.6
20240623174049 89 158 1.0 7.0 0.00 0.00 0.00 45 1016.7
20240623173547 88 33 2.0 6.0 0.00 0.00 0.00 46 1016.7
20240623173103 89 26 1.0 8.0 0.00 0.00 0.00 53 1016.7
20240623172551 88 107 2.0 8.0 0.00 0.00 0.00 53 1016.7
20240623172049 88 46 3.0 8.0 0.00 0.00 0.00 56 1016.7
20240623171557 87 141 2.0 7.0 0.00 0.00 0.00 54 1016.9
20240623171050 86 194 2.0 7.0 0.00 0.00 0.00 54 1016.9
20240623170548 87 141 2.0 7.0 0.00 0.00 0.00 50 1017.0
20240623170054 87 142 1.0 6.0 0.00 0.00 0.00 53 1017.0
20240623165551 87 86 2.0 8.0 0.00 0.00 0.00 56 1017.0
20240623165052 86 176 2.0 8.0 0.00 0.00 0.00 55 1017.1
20240623164556 86 143 4.0 8.0 0.00 0.00 0.00 54 1017.0
20240623164048 86 111 3.0 6.0 0.00 0.00 0.00 55 1017.1
20240623163549 87 71 2.0 8.0 0.00 0.00 0.00 56 1017.0
20240623163057 86 32 2.0 8.0 0.00 0.00 0.00 62 1017.0
20240623162549 87 162 2.0 6.0 0.00 0.00 0.00 58 1017.0
20240623162046 86 37 1.0 6.0 0.00 0.00 0.00 62 1016.9
20240623161559 86 86 1.0 8.0 0.00 0.00 0.00 63 1017.1
20240623161050 86 28 2.0 8.0 0.00 0.00 0.00 63 1017.0
20240623160550 85 165 2.0 8.0 0.00 0.00 0.00 59 1017.0
20240623160053 85 131 3.0 8.0 0.00 0.00 0.00 61 1016.9
20240623155555 86 15 2.0 6.0 0.00 0.00 0.00 62 1016.9
20240623155052 85 92 2.0 8.0 0.00 0.00 0.00 61 1016.9
20240623154603 85 159 3.0 8.0 0.00 0.00 0.00 66 1017.0
20240623154053 84 17 1.0 5.0 0.00 0.00 0.00 67 1017.0
20240623153550 84 146 2.0 6.0 0.00 0.00 0.00 64 1017.0
20240623153052 84 63 2.0 7.0 0.00 0.00 0.00 66 1017.0
20240623152550 83 125 1.0 8.0 0.00 0.00 0.00 66 1017.1
20240623152049 83 139 3.0 8.0 0.00 0.00 0.00 64 1017.0
20240623151553 83 92 1.0 5.0 0.00 0.00 0.00 64 1017.1
20240623151050 83 0 1.0 5.0 0.00 0.00 0.00 66 1017.2
20240623150549 83 150 1.0 4.0 0.00 0.00 0.00 67 1017.2
20240623150052 82 167 1.0 7.0 0.00 0.00 0.00 68 1017.1
20240623145551 82 219 2.0 5.0 0.00 0.00 0.00 69 1017.2
20240623145049 82 167 2.0 6.0 0.00 0.00 0.00 66 1017.2
20240623144603 82 145 1.0 6.0 0.00 0.00 0.00 69 1017.2
20240623144051 82 166 1.0 4.0 0.00 0.00 0.00 69 1017.2
20240623143555 81 207 1.0 4.0 0.00 0.00 0.00 68 1017.1
20240623143049 80 0 1.0 4.0 0.00 0.00 0.00 68 1017.1
20240623142550 80 109 1.0 5.0 0.00 0.00 0.00 67 1017.2
20240623142053 80 186 1.0 6.0 0.00 0.00 0.00 66 1017.2
20240623141550 80 61 2.0 5.0 0.00 0.00 0.00 68 1017.1
20240623141051 80 90 1.0 4.0 0.00 0.00 0.00 70 1017.1
20240623140551 79 0 0.0 4.0 0.00 0.00 0.00 73 1017.2
20240623140050 79 164 0.0 2.0 0.00 0.00 0.00 72 1017.2
20240623135553 79 159 0.0 2.0 0.00 0.00 0.00 70 1017.0
20240623135049 79 69 0.0 2.0 0.00 0.00 0.00 73 1017.1
20240623134553 78 0 1.0 2.0 0.00 0.00 0.00 75 1016.9
20240623134050 78 0 0.0 1.0 0.00 0.00 0.00 76 1017.0
20240623133549 77 0 0.0 1.0 0.00 0.00 0.00 80 1017.1